sat.trackr.live / text

‹ back to catalog

STARLINK-31289

NORAD 59173 · 2024-044X

PAYLOAD ACTIVE UNKNOWN

§ Identity

Operator
Country
US
Launch date
2024-03-04
Launch site
AFETR
Launch vehicle
Mass (kg)
RCS (m²)

Purposes: comms

External: N2YO · Heavens-Above · Gunter

§ Orbital elements

Epoch: 2026-05-25T01:13:20.953344Z

Period
94.27 min
Inclination
43.0022°
Eccentricity
0.0000969
Mean motion
15.27579367 rev/d
Perigee alt
482.4 km
Apogee alt
483.7 km
Semi-major
6,861.2 km
B*
1.2341e-5
RAAN
35.8128°
Arg perigee
268.4275°
Mean anomaly
91.6465°
Rev number
12,527

§ Raw data

STARLINK-312891 59173U 24044X   26145.05093696  .00000078  00000+0  12341-4 0  99942 59173  43.0022  35.8128 0000969 268.4275  91.6465 15.27579367125273

JSON: /api/v1/satellites/59173 · /tle

For live sub-satellite position, see the globe view (requires WebGL).

§ Visibility from observer

Set your observer location to see the next 7 days of passes ≥ 10°. The values pass through the URL so the page stays shareable.

No JS? Fill the form by hand. The geolocation button needs JavaScript.